KC0VVH Weather Reports


time (UTC)temp
F
wind
direction
speed
knots
gust
knots
rain 1hr
in
rain 24hr
in
rain mn
in
humidity
%
barometer
mb
20260831230912 70 0 0.0 0.9 0.00 0.20 0.00 60 1016.5
20260831230013 70 37 0.0 2.6 0.00 0.20 0.00 60 1016.5
20260831225412 70 0 0.0 0.0 0.00 0.20 0.00 60 1016.5
20260831224513 70 38 0.0 3.5 0.00 0.20 0.00 59 1016.5
20260831223613 70 42 0.0 3.5 0.00 0.20 0.00 60 1016.5
20260831222712 70 31 0.0 7.0 0.00 0.20 0.00 59 1016.5
20260831221813 71 20 0.0 7.0 0.00 0.20 0.00 59 1016.5
20260831220913 71 15 0.0 4.3 0.00 0.20 0.00 59 1016.5
20260831220034 71 12 0.9 6.1 0.00 0.20 0.00 59 1016.5
20260831215413 71 20 0.9 6.1 0.00 0.20 0.00 59 1016.5
20260831214534 71 36 0.9 6.1 0.00 0.20 0.00 57 1016.5
20260831213634 72 4 0.9 6.1 0.00 0.20 0.00 56 1016.5
20260831212712 72 9 0.9 6.1 0.00 0.20 0.00 56 1016.5
20260831211812 73 9 0.9 4.3 0.00 0.20 0.00 54 1016.5
20260831210913 73 1 0.9 7.0 0.00 0.20 0.00 54 1016.5
20260831210013 73 3 0.9 7.8 0.00 0.20 0.00 53 1016.5
20260831205413 73 341 0.9 7.0 0.00 0.20 0.00 55 1016.5
20260831204533 73 305 0.9 8.7 0.00 0.20 0.00 53 1016.5
20260831203612 74 359 2.6 9.6 0.00 0.20 0.00 54 1016.5
20260831202713 74 344 0.9 7.8 0.00 0.20 0.00 53 1016.5
20260831201834 74 334 1.7 8.7 0.00 0.20 0.00 53 1016.5
20260831200934 74 335 2.6 8.7 0.00 0.20 0.00 54 1016.5
20260831200034 74 351 2.6 13.9 0.00 0.20 0.00 54 1016.5
20260831195413 73 354 2.6 13.9 0.00 0.20 0.00 55 1016.5
20260831194513 73 17 2.6 8.7 0.00 0.20 0.00 60 1016.5
20260831193613 72 23 1.7 8.7 0.00 0.20 0.00 61 1016.5
20260831192713 72 19 2.6 8.7 0.00 0.20 0.00 63 1016.5
20260831191813 72 14 1.7 8.7 0.00 0.20 0.00 62 1016.5
20260831190912 72 4 0.9 6.1 0.00 0.20 0.00 62 1016.5
20260831190013 72 29 0.9 4.3 0.00 0.20 0.00 62 1016.5
20260831185433 72 29 1.7 5.2 0.00 0.20 0.00 63 1016.5
20260831184513 71 23 1.7 7.0 0.00 0.20 0.00 61 1016.5
20260831183613 71 16 0.9 5.2 0.00 0.20 0.00 58 1016.5
20260831182713 71 237 0.9 4.3 0.00 0.20 0.00 59 1016.5
20260831181813 71 196 0.9 4.3 0.00 0.20 0.00 61 1016.5
20260831180934 70 196 0.9 4.3 0.00 0.20 0.00 61 1016.5
20260831180013 70 196 0.0 2.6 0.00 0.20 0.00 61 1016.5
20260831175412 70 196 0.0 2.6 0.00 0.20 0.00 61 1016.5
20260831174513 69 196 0.0 2.6 0.00 0.20 0.00 61 1016.5
20260831173613 69 196 0.0 4.3 0.00 0.20 0.00 62 1016.5
20260831172712 68 197 0.0 0.9 0.00 0.20 0.00 63 1016.5
20260831171812 68 197 0.0 0.9 0.00 0.20 0.00 62 1016.5
20260831170913 67 197 0.0 5.2 0.00 0.20 0.00 64 1016.5
20260831170013 67 197 1.7 5.2 0.00 0.20 0.00 64 1016.5
20260831165413 66 197 0.9 5.2 0.00 0.20 0.00 66 1016.5
20260831164512 66 197 0.0 3.5 0.00 0.20 0.00 67 1016.5
20260831163613 65 197 0.0 2.6 0.00 0.20 0.00 70 1016.5
20260831162713 65 197 0.9 4.3 0.00 0.20 0.00 70 1016.5
20260831161813 65 197 1.7 5.2 0.00 0.20 0.00 69 1016.5
20260831160934 64 197 1.7 5.2 0.00 0.20 0.00 71 1016.5
20260831160013 64 197 1.7 5.2 0.00 0.20 0.00 71 1016.5
20260831155413 64 197 0.9 5.2 0.00 0.20 0.00 70 1016.5
20260831154513 64 196 0.0 2.6 0.00 0.20 0.00 72 1016.5
20260831153613 64 197 0.0 3.5 0.00 0.20 0.00 75 1016.5
20260831152713 64 197 0.0 1.7 0.00 0.20 0.00 74 1016.5
20260831151812 63 211 0.0 4.3 0.00 0.20 0.00 75 1016.5
20260831150913 63 207 0.0 4.3 0.00 0.20 0.00 75 1016.5
20260831150013 63 132 0.0 3.5 0.00 0.20 0.00 75 1016.5
20260831145413 62 154 0.0 2.6 0.00 0.20 0.00 75 1016.5
20260831144513 62 0 0.0 0.0 0.00 0.20 0.00 76 1016.5
20260831143613 62 0 0.0 0.0 0.00 0.20 0.00 75 1016.5
20260831142713 62 0 0.0 0.0 0.00 0.20 0.00 76 1016.5
20260831141813 62 0 0.0 0.9 0.00 0.20 0.00 76 1016.5
20260831140913 62 0 0.0 0.0 0.00 0.20 0.00 76 1016.5
20260831140013 62 197 0.0 4.3 0.00 0.20 0.00 75 1016.5
20260831135413 62 198 0.0 4.3 0.00 0.20 0.00 75 1016.5
20260831134513 61 205 0.0 2.6 0.00 0.20 0.00 75 1016.5
20260831133613 61 0 0.0 0.0 0.00 0.20 0.00 77 1016.5
20260831132713 60 205 0.9 5.2 0.00 0.20 0.00 79 1016.5
20260831131813 58 205 0.0 3.5 0.00 0.20 0.00 84 1016.5
20260831130913 58 0 0.0 0.0 0.00 0.20 0.00 85 1016.5
20260831130013 58 0 0.0 0.0 0.00 0.20 0.00 84 1016.5
20260831125434 58 0 0.0 0.0 0.00 0.20 0.00 84 1016.5
20260831124513 59 0 0.0 0.0 0.00 0.20 0.00 84 1016.5
20260831123613 59 0 0.0 0.0 0.00 0.20 0.00 82 1016.5
20260831122713 60 0 0.0 0.0 0.00 0.20 0.00 81 1016.5
20260831121813 60 0 0.0 0.0 0.00 0.20 0.00 80 1016.5
20260831120913 60 0 0.0 0.0 0.00 0.20 0.00 79 1016.5
20260831120013 61 0 0.0 0.0 0.00 0.20 0.00 78 1016.5
20260831115413 61 0 0.0 0.0 0.00 0.20 0.00 76 1016.5
20260831114513 62 0 0.0 0.0 0.00 0.20 0.00 75 1016.5
20260831113613 62 0 0.0 0.0 0.00 0.20 0.00 74 1016.5
20260831112713 62 0 0.0 0.0 0.00 0.20 0.00 74 1016.5
20260831111812 62 0 0.0 0.0 0.00 0.21 0.00 73 1016.5
20260831110913 62 0 0.0 0.0 0.00 0.22 0.00 73 1016.5
20260831110013 62 0 0.0 0.0 0.00 0.22 0.00 73 1016.5
20260831105413 62 205 0.0 0.9 0.00 0.22 0.00 73 1016.5
20260831104513 62 205 0.9 6.1 0.00 0.25 0.00 72 1016.5
20260831103613 62 205 0.0 4.3 0.00 0.25 0.00 72 1016.5
20260831102713 63 205 0.0 5.2 0.00 0.25 0.00 72 1016.5
20260831101813 62 205 0.0 4.3 0.00 0.25 0.00 72 1016.5
20260831100913 62 208 0.9 6.1 0.00 0.25 0.00 72 1016.5
20260831100012 62 205 0.0 5.2 0.00 0.25 0.00 72 1016.5
20260831095433 62 194 0.9 5.2 0.00 0.25 0.00 72 1016.5
20260831094513 62 188 0.0 5.2 0.00 0.25 0.00 72 1016.5
20260831093613 62 188 0.0 5.2 0.00 0.25 0.00 72 1016.5
20260831092713 62 189 0.0 5.2 0.00 0.25 0.00 72 1016.5
20260831091834 62 187 0.9 7.8 0.00 0.25 0.00 72 1016.5
20260831090912 62 185 0.9 7.0 0.00 0.25 0.00 71 1016.5
20260831090013 62 192 0.9 6.1 0.00 0.25 0.00 71 1016.5
20260831085413 62 186 0.9 6.1 0.00 0.25 0.00 72 1016.5
20260831084513 62 180 1.7 7.8 0.00 0.25 0.00 72 1016.5
20260831083613 62 187 3.5 11.3 0.00 0.25 0.00 73 1016.5
20260831082713 62 188 4.3 11.3 0.00 0.25 0.00 74 1016.5
20260831081834 62 194 2.6 10.4 0.00 0.25 0.00 76 1016.5
20260831080913 62 189 2.6 7.0 0.00 0.25 0.00 76 1016.5
20260831080013 61 197 0.9 7.0 0.00 0.25 0.00 77 1016.5
20260831075413 61 201 0.9 5.2 0.00 0.25 0.00 77 1016.5
20260831074512 62 205 0.9 6.1 0.00 0.25 0.00 76 1016.5
20260831073613 62 190 0.0 1.7 0.00 0.25 0.00 75 1016.5
20260831072713 62 190 0.0 5.2 0.00 0.25 0.00 75 1016.5
20260831071813 62 190 0.9 5.2 0.00 0.25 0.00 75 1016.5
20260831070913 62 190 0.0 5.2 0.00 0.25 0.00 75 1016.5
20260831070013 62 0 0.0 0.0 0.00 0.25 0.00 74 1016.5
20260831065413 62 188 0.0 4.3 0.00 0.25 0.00 74 1016.5
20260831064513 62 195 1.7 7.0 0.00 0.25 0.00 73 1016.5
20260831063613 62 198 1.7 7.8 0.00 0.25 0.00 73 1016.5
20260831062713 62 197 1.7 6.1 0.00 0.25 0.00 74 1016.5
20260831061813 62 208 0.9 7.8 0.00 0.25 0.00 75 1016.5
20260831060934 62 203 0.0 6.1 0.00 0.25 0.00 74 1016.5
20260831060013 62 181 1.7 7.0 0.00 0.25 0.00 75 1016.5
20260831055413 62 187 2.6 8.7 0.00 0.25 0.25 76 1016.5
20260831054534 62 184 0.0 7.0 0.00 0.25 0.25 75 1016.5
20260831053612 62 181 0.0 2.6 0.00 0.25 0.25 75 1016.5
20260831052713 62 0 0.0 0.0 0.00 0.25 0.25 78 1016.5
20260831051813 62 0 0.0 0.0 0.00 0.25 0.25 76 1016.5
20260831050913 62 180 0.0 0.9 0.00 0.25 0.25 76 1016.5
20260831050034 62 180 0.0 0.9 0.00 0.25 0.25 76 1016.5
20260831045413 62 0 0.0 0.0 0.00 0.25 0.25 76 1016.5
20260831044513 62 0 0.0 0.0 0.00 0.25 0.25 76 1016.5
20260831043634 63 0 0.0 0.9 0.00 0.25 0.25 74 1016.5
20260831042713 64 0 0.0 0.0 0.00 0.25 0.25 70 1016.5
20260831041813 65 0 0.0 0.0 0.00 0.25 0.25 67 1016.5
20260831040913 64 183 0.9 6.1 0.00 0.25 0.25 67 1016.5
20260831040013 64 190 0.9 6.1 0.00 0.25 0.25 68 1016.5
20260831035413 64 190 0.9 6.1 0.00 0.25 0.25 68 1016.5
20260831034513 64 190 0.9 5.2 0.00 0.25 0.25 70 1016.5
20260831033613 63 191 1.7 7.0 0.00 0.25 0.25 71 1016.5
20260831032713 63 193 2.6 11.3 0.00 0.25 0.25 75 1016.5
20260831031813 62 203 3.5 11.3 0.00 0.25 0.25 78 1016.5
20260831030913 62 209 0.9 6.1 0.00 0.25 0.25 82 1016.5
20260831030013 61 212 0.9 5.2 0.00 0.25 0.25 82 1016.5
20260831025434 62 90 0.0 1.7 0.00 0.25 0.25 82 1016.5
20260831024513 62 0 0.0 0.0 0.00 0.25 0.25 82 1016.5
20260831023613 62 0 0.0 0.0 0.00 0.25 0.25 81 1016.5
20260831022713 63 215 0.0 4.3 0.00 0.25 0.25 79 1016.5
20260831021813 64 229 0.0 4.3 0.00 0.26 0.25 76 1016.5
20260831020934 64 234 0.9 6.1 0.00 0.26 0.25 74 1016.5
20260831020013 64 232 0.0 5.2 0.00 0.26 0.25 76 1016.5
20260831015413 63 230 1.7 9.6 0.00 0.26 0.25 76 1016.5
20260831014534 63 225 2.6 10.4 0.00 0.26 0.25 77 1016.5
20260831013613 62 240 0.9 8.7 0.01 0.26 0.25 78 1016.5
20260831012713 62 233 0.9 6.1 0.01 0.26 0.25 80 1016.5
20260831011834 61 235 0.9 7.8 0.02 0.26 0.25 81 1016.5
20260831010913 61 226 0.0 4.3 0.05 0.26 0.25 83 1016.5
20260831010013 61 187 0.9 4.3 0.10 0.26 0.25 84 1016.5
20260831005413 61 181 0.0 4.3 0.13 0.26 0.25 84 1016.5
20260831004513 61 180 0.0 1.7 0.18 0.26 0.25 83 1016.5
20260831003613 61 278 0.0 0.9 0.19 0.25 0.24 83 1016.5
20260831002713 61 9 0.0 2.6 0.19 0.25 0.24 81 1016.5
20260831001813 62 291 0.9 10.4 0.18 0.24 0.23 79 1016.5
20260831000913 63 261 4.3 18.2 0.15 0.21 0.20 76 1016.5
20260831000013 66 293 7.8 21.7 0.10 0.16 0.15 68 1016.5
20260830235413 71 301 3.5 20.0 0.07 0.13 0.13 59 1016.5
20260830234513 75 0 0.0 0.0 0.02 0.08 0.07 60 1016.5
20260830233613 76 0 0.0 0.0 0.00 0.06 0.05 47 1016.5
20260830232713 76 0 0.0 0.0 0.00 0.06 0.05 44 1016.5
20260830231813 76 196 0.9 5.2 0.00 0.06 0.05 43 1016.5